STARLINK-31971, 59934

Orbit data source: Space-Track

STARLINK-31971, 59934 is a payload satellite owned by SpaceX/Seattle (US) in LEO that was launched on Sat, 01 Jun 2024 UTC via an FALCON 9 launch vehicle from the Air Force Eastern Test Range (AFETR). Payloads include a variety of satellites, spacecraft, and rockets equipped with specific instruments for various scientific and technological missions. These include communications satellites like Starlink; space stations such as the ISS; scientific satellites like the Hubble; Earth observation satellites from companies like Planet Labs, Umbra, and HawkEye 360; GPS; miniature CubeSats for education and research; and military/defense satellites.

Loading next visibility...
STARLINK-31971 details
Identifier
59934, 2024-106N
Orbit
LEO
Last TLE update11 hours ago
Origin
Flag of USSpaceX/Seattle (US)
ManufacturerSpaceX/Seattle
MissionOperational spacecraft
Bus & MotorSTARLINK V2M, Unknown motor
Mass730 kg wet, ~700 kg dry
Launch date (UTC)
2024-06-01 (8 months ago)
Launch vehicle
FALCON 9
Launch site
Air Force Eastern Test Range (AFETR)
Object type
Payload
Rocket body
Debris
Shape & HBRUnknown
Radar Cross SectionLarge (>1 m²)

Expand to show TLE details & history

TLE from 11 hours ago
0 STARLINK-31971
1 59934U 24106N   25044.19666368  .00002460  00000-0  66156-4 0  9993
2 59934  43.0030  11.2606 0001423 271.9262  88.1432 15.40685226 40804
Epoch: 2025-02-13T04:43Z
Definitive object data (Epoch: 2025-02-13T04:43:11.741Z)
Latitude-0.00001°
Longitude156.98542°
Altitude443.829 km
Speed7.648 km/s
True Right ascension00h 45m 02s
True Declination0° 00' 00"
Sunlit
Object was in daylight at TLE epoch
Visualization TLE readout
Latitude10.84179°
Longitude166.13687°
Altitude443.279 km
Speed7.649 km/s
Apparent Right ascension03h 22m 19s
Apparent Declination-16° 38' 45"
Sunlit
Object is in daylight
Visualization observer readout
Local Sidereal Time18:16:01
Azimuth70.999° E
Elevation-45.848°
Doppler factor1
Orbital elements
Apogee altitude447.013 km
Perigee altitude445.07 km
Semi-major axis6,824.178 km
Eccentricity0.0001423
Inclination43.003°
RAAN11.2606°
Arg. of periapsis271.9262°
True anomaly88.1595°
Mean anomaly88.1432°
Eccentric anomaly88.15135°
Mean motion3.85006 °/min
BSTAR0.000066156
Orbital period93.51 mins
Loading maneuver chart data...
Loading historical data...
Loading historical data...
Loading historical data...
Loading historical data...
Loading historical data...
Loading historical data...
Loading historical data...

STARLINK-31971 Visibility forecast

Observer location: undefined°, undefined

Span
Click to sort rows by Start time (UTC) header in descending order
Start Az.
Max El. time (UTC)
Max El. Az.
Max El.
End time (UTC)
End Az.
6 mins2025-02-14 01:09:47.947Z224.381° SW2025-02-14 01:12:47.947Z143.7° SSE35.393°2025-02-14 01:15:47.947Z80.369° E
5 mins2025-02-14 02:48:47.947Z277.674° WNW2025-02-14 02:50:47.947Z0.346° NNE40.299°2025-02-14 02:53:47.947Z69.47° E
5 mins2025-02-14 04:26:47.947Z295.112° NW2025-02-14 04:28:47.947Z350.601° N38.748°2025-02-14 04:31:47.947Z84.222° E
5 mins2025-02-14 06:04:47.947Z277.845° WNW2025-02-14 06:06:47.947Z229.735° WSW38.264°2025-02-14 06:09:47.947Z129.852° SE
|